{"data":{"norad_id":54103,"epoch":"2026-09-20T23:20:42.591552Z","epoch_age_seconds":48957,"freshness":"FRESH","line1":"1 54103U 22136BE  26263.97271518  .00000901  00000+0  40788-4 0  9996","line2":"2 54103  53.1588 145.7437 0001246  93.5134 266.6010 15.31702484216908","mean_motion":15.31702484,"eccentricity":0.0001246,"inclination_deg":53.1588,"raan_deg":145.7437,"arg_perigee_deg":93.5134,"mean_anomaly_deg":266.601,"bstar":4.0788e-5,"rev_number":21690,"period_min":94.013035497565,"perigee_km":469.87922140993,"apogee_km":471.58595971189,"semimajor_km":6848.8695905609,"source":"CELESTRAK","updated_at":"2026-09-21T09:00:33.086276Z"}}